Temperature
2 1 1 1 1 0 0 2 2 3 3 3 2 -0 -1 -2 -3 -4 -4 -4 -4 -4 -4 -4 -4 -4 -4 -4 -4 -4 -4 -5 -4 -4 -4 -5 -5 -4 -4 -4 -5 -4 -4 -4
-0 0 -0 -1 0 0 0 0 1 1 1 1 -1 -2 -3 -4 -4 -5 -5 -5 -5 -5 -5 -5 -5 -5 -5 -5 -5 -5 -5 -5 -5 -5 -5 -5 -5 -5 -5 -5 -5 -5 -5 -5
1 -1 -1 1 0 -1 -1 -1 -1 0 1 -1 -2 -3 -4 -5 -5 -5 -5 -5 -6 -6 -6 -6 -6 -6 -6 -6 -6 -6 -6 -6 -6 -6 -6 -6 -6 -6 -6 -6 -6 -6 -6 -6
-0 -1 0 2 -2 -1 -2 -2 -2 -2 -2 -3 -3 -5 -6 -6 -6 -6 -6 -6 -6 -6 -6 -6 -7 -7 -6 -6 -6 -6 -7 -7 -7 -7 -7 -7 -7 -7 -7 -7 -7 -7 -7 -7
-1 0 1 1 -2 -3 -3 -2 -3 -4 -4 -5 -6 -6 -6 -6 -6 -6 -6 -7 -7 -7 -7 -7 -7 -7 -7 -7 -7 -7 -7 -7 -7 -7 -7 -7 -7 -7 -7 -8 -8 -7 -7 -7
-1 -0 1 1 -4 -5 -3 -2 -4 -5 -5 -5 -6 -3 -3 -6 -7 -7 -7 -7 -7 -8 -8 -8 -8 -8 -8 -8 -8 -8 -8 -8 -8 -8 -8 -8 -8 -8 -8 -8 -8 -8 -8 -8
-1 -1 0 -3 -6 -5 -2 -1 -5 -6 -6 -6 -6 -5 -6 -7 -7 -8 -8 -8 -8 -8 -8 -9 -9 -9 -9 -9 -9 -9 -9 -9 -9 -9 -9 -9 -9 -9 -9 -9 -9 -9 -9 -9
-2 -2 -1 -6 -6 -4 -3 -6 -6 -6 -6 -7 -7 -7 -8 -8 -8 -8 -9 -9 -9 -9 -9 -9 -10 -9 -9 -9 -10 -10 -10 -10 -10 -10 -10 -10 -10 -10 -10 -10 -10 -10 -10 -10
-3 -2 -5 -7 -7 -7 -7 -7 -7 -7 -7 -7 -8 -8 -9 -9 -9 -9 -9 -9 -9 -10 -10 -10 -10 -10 -10 -10 -10 -10 -10 -10 -10 -10 -10 -11 -11 -11 -11 -11 -11 -11 -11 -11
-6 -5 -7 -8 -8 -8 -7 -7 -7 -7 -8 -8 -8 -9 -9 -10 -10 -10 -10 -10 -10 -10 -10 -10 -11 -11 -11 -11 -11 -11 -11 -11 -11 -11 -11 -11 -11 -11 -12 -12 -12 -12 -12 -12
-6 -7 -8 -9 -8 -8 -8 -8 -8 -8 -8 -9 -9 -9 -10 -10 -10 -11 -11 -11 -11 -11 -11 -11 -11 -11 -12 -12 -12 -12 -12 -12 -12 -12 -12 -12 -12 -12 -12 -12 -13 -13 -13 -12
-5 -6 -7 -8 -8 -8 -8 -9 -9 -9 -9 -9 -10 -10 -10 -11 -11 -11 -11 -11 -11 -12 -12 -12 -12 -12 -12 -12 -12 -12 -13 -13 -13 -13 -13 -13 -13 -13 -13 -13 -13 -13 -13 -13
-9 -9 -9 -9 -9 -9 -9 -9 -10 -10 -10 -10 -11 -11 -11 -11 -11 -12 -12 -12 -12 -12 -12 -12 -12 -13 -13 -13 -13 -13 -13 -13 -14 -14 -14 -14 -14 -14 -13 -13 -13 -13 -13 -13
-9 -10 -10 -10 -10 -10 -10 -11 -11 -11 -11 -11 -12 -12 -12 -12 -12 -12 -12 -13 -13 -13 -13 -13 -13 -13 -13 -14 -14 -14 -14 -14 -14 -14 -14 -14 -14 -14 -14 -14 -14 -13 -13 -13
-10 -10 -11 -11 -11 -11 -11 -11 -12 -12 -12 -12 -12 -12 -12 -13 -13 -13 -13 -13 -13 -13 -13 -13 -13 -14 -14 -14 -14 -14 -15 -15 -15 -15 -15 -15 -15 -15 -15 -15 -15 -14 -14 -14
-11 -11 -11 -12 -12 -12 -12 -12 -12 -12 -12 -12 -13 -13 -13 -13 -13 -13 -14 -14 -14 -14 -14 -14 -14 -14 -14 -15 -15 -15 -15 -15 -15 -15 -16 -16 -15 -16 -16 -15 -15 -15 -15 -15
-12 -13 -13 -13 -12 -12 -12 -12 -13 -13 -13 -13 -13 -13 -14 -14 -14 -14 -14 -14 -14 -14 -15 -15 -15 -15 -15 -15 -15 -15 -16 -16 -16 -16 -16 -16 -16 -16 -16 -16 -16 -16 -16 -15
-12 -12 -12 -12 -12 -13 -13 -13 -13 -13 -13 -14 -14 -14 -14 -14 -14 -15 -15 -15 -15 -15 -15 -15 -15 -15 -15 -16 -16 -16 -16 -16 -16 -16 -16 -16 -17 -17 -17 -16 -16 -16 -16 -16
-12 -12 -12 -12 -13 -13 -13 -13 -13 -14 -14 -14 -14 -14 -15 -15 -15 -15 -15 -15 -15 -15 -15 -16 -16 -16 -16 -16 -16 -16 -17 -17 -17 -17 -17 -17 -17 -17 -17 -17 -17 -17 -17 -17
-12 -12 -12 -13 -13 -13 -13 -14 -14 -14 -14 -15 -15 -15 -15 -15 -16 -16 -16 -16 -16 -16 -16 -16 -16 -16 -16 -17 -17 -17 -17 -17 -17 -17 -17 -17 -17 -17 -17 -17 -17 -17 -17 -17
-12 -13 -13 -13 -13 -13 -14 -14 -14 -14 -15 -15 -15 -16 -16 -16 -16 -16 -17 -16 -17 -17 -17 -17 -17 -17 -17 -17 -17 -17 -18 -18 -18 -18 -18 -18 -18 -18 -18 -18 -18 -18 -18 -17
-13 -13 -13 -13 -14 -14 -14 -15 -15 -15 -15 -16 -16 -16 -16 -17 -17 -17 -17 -17 -17 -17 -17 -17 -17 -18 -18 -18 -18 -18 -18 -18 -18 -18 -18 -18 -18 -18 -18 -18 -18 -18 -18 -18
-13 -13 -14 -14 -14 -15 -15 -15 -16 -16 -16 -16 -16 -17 -17 -17 -17 -17 -17 -18 -18 -18 -18 -18 -18 -18 -18 -18 -18 -18 -18 -18 -18 -18 -18 -18 -18 -18 -18 -18 -18 -18 -18 -18
-14 -14 -14 -15 -15 -15 -16 -16 -16 -16 -17 -17 -17 -17 -18 -18 -18 -18 -18 -18 -18 -18 -18 -18 -18 -19 -19 -19 -19 -19 -18 -18 -19 -19 -19 -19 -19 -19 -19 -19 -19 -19 -19 -18
-14 -15 -15 -15 -16 -16 -16 -17 -17 -17 -17 -17 -18 -18 -18 -18 -18 -18 -19 -19 -19 -19 -19 -19 -19 -19 -19 -19 -19 -19 -19 -19 -19 -19 -19 -19 -19 -19 -19 -19 -19 -19 -19 -18
-15 -15 -16 -16 -16 -17 -17 -17 -17 -18 -18 -18 -18 -18 -19 -19 -19 -19 -19 -19 -19 -19 -19 -19 -19 -19 -19 -19 -19 -19 -19 -19 -19 -19 -19 -19 -19 -19 -19 -19 -19 -19 -19 -19
-16 -16 -16 -17 -17 -17 -18 -18 -18 -18 -18 -19 -19 -19 -19 -19 -19 -19 -19 -19 -19 -19 -19 -19 -19 -19 -19 -19 -19 -19 -19 -19 -19 -19 -19 -19 -19 -19 -19 -19 -19 -19 -19 -19
Wind_Speed
12 9 7 10 12 13 15 16 14 15 16 16 9 7 6 5 4 3 3 3 3 3 3 2 2 2 2 2 2 3 3 3 3 3 3 3 2 2 2 3 3 4 4 4
8 8 9 12 15 16 17 16 18 19 18 11 6 4 4 5 4 4 4 3 3 3 3 2 2 2 2 2 2 2 2 3 3 2 2 2 2 2 2 3 3 3 3 4
7 5 7 12 12 14 10 11 11 15 13 4 4 5 5 4 4 4 4 3 3 2 2 2 2 2 2 2 2 2 2 2 2 2 2 2 2 2 2 3 3 3 3 4
4 3 10 5 1 6 9 10 10 10 6 5 6 3 2 3 3 3 3 2 2 2 2 2 2 2 2 2 1 1 2 2 2 2 2 2 2 2 3 3 3 3 4 4
4 6 10 5 2 3 6 7 7 10 8 5 2 2 3 2 3 3 2 2 2 1 1 1 1 2 1 1 1 1 2 3 3 3 3 2 2 3 3 3 3 4 4 4
5 6 8 2 2 1 2 5 3 6 7 4 2 4 3 1 1 1 0 1 1 1 1 1 1 1 1 1 2 2 3 3 3 3 3 3 3 4 4 3 4 4 4 5
9 9 8 1 1 3 5 3 0 4 5 5 5 4 0 2 1 1 1 1 1 1 1 1 1 1 1 1 2 3 4 3 3 3 3 3 3 3 3 3 3 3 4 4
6 8 8 3 5 5 4 2 1 2 3 4 4 1 1 1 1 1 1 1 1 1 1 2 1 1 1 2 3 3 3 3 3 3 3 3 3 3 3 3 3 4 4 4
7 6 1 4 4 2 2 2 2 2 2 3 3 3 2 2 1 1 0 1 1 1 1 2 2 1 2 3 3 3 3 3 3 3 3 3 3 3 3 3 3 3 4 4
5 6 4 4 4 4 3 3 2 2 2 3 4 3 3 2 2 1 1 1 1 1 1 2 2 2 2 3 3 2 3 3 3 3 3 3 3 3 3 3 3 4 4 5
6 5 4 5 5 5 4 2 2 1 1 3 3 3 3 2 2 2 1 1 1 1 2 3 3 3 3 3 2 3 3 3 3 3 3 3 3 3 4 4 4 4 4 5
6 4 5 4 2 2 2 2 2 2 1 1 2 2 2 2 2 1 1 1 1 2 2 3 3 3 3 3 3 3 3 3 3 3 3 3 4 4 5 6 7 8 8 7
5 3 3 2 1 0 1 2 1 2 2 1 1 1 1 1 1 1 1 1 2 2 3 3 3 4 3 3 3 3 4 4 3 3 4 4 4 4 5 6 7 7 8 9
3 2 2 2 2 0 1 1 1 1 1 1 1 1 1 0 1 1 2 2 2 3 3 3 3 4 4 3 3 3 4 4 4 4 4 4 4 4 5 5 6 6 7 9
3 2 3 1 1 1 1 2 2 1 1 1 1 0 0 1 2 2 3 2 2 3 3 3 4 5 4 3 3 4 4 4 4 4 4 4 4 5 5 5 5 6 6 7
2 0 1 1 1 0 1 1 1 1 0 0 1 1 1 1 2 3 3 2 3 4 4 4 5 5 4 3 4 4 4 6 5 4 4 4 4 4 5 5 5 5 5 6
1 1 1 1 2 2 1 2 2 2 1 2 2 2 1 1 2 2 3 3 3 5 5 5 5 5 4 4 4 4 4 5 6 5 4 4 4 5 5 5 5 5 6 7
3 3 2 3 2 2 2 2 2 2 2 2 2 1 2 2 3 4 4 4 4 5 5 5 5 5 4 4 4 4 4 4 4 4 4 4 5 5 5 5 5 6 6 7
1 1 1 2 2 2 2 2 2 2 2 2 2 3 3 3 4 4 4 4 4 5 5 5 6 5 5 5 5 4 4 4 4 4 4 6 6 5 5 5 6 6 6 6
1 0 0 1 1 1 2 2 2 2 2 2 2 3 3 4 3 3 4 4 5 5 5 6 6 5 5 5 6 4 4 5 5 5 5 5 5 5 5 6 6 6 6 6
1 1 1 1 1 2 2 2 2 2 2 2 3 3 4 4 3 3 3 5 5 5 5 7 5 5 5 5 6 4 4 4 5 5 5 5 5 6 6 6 6 6 6 7
1 2 2 2 2 2 2 2 2 2 2 2 3 3 3 4 4 4 4 5 5 7 6 5 5 6 7 7 5 4 4 5 5 5 5 5 5 6 6 7 6 7 7 7
2 2 2 2 2 2 2 2 2 2 2 3 3 3 4 4 3 4 4 4 4 7 6 5 7 9 9 5 3 4 4 5 5 5 6 6 6 6 6 7 7 7 7 7
2 2 2 2 1 1 2 2 2 2 3 3 3 4 4 3 3 3 4 7 8 9 6 7 9 9 7 4 3 4 5 5 6 6 6 6 6 6 7 7 7 7 8 9
2 2 2 2 2 2 2 2 2 2 2 2 3 3 3 3 4 4 5 5 8 8 6 7 9 8 5 4 4 5 5 6 6 6 6 6 6 7 7 7 7 8 8 8
2 2 2 3 2 2 2 2 2 2 2 3 3 3 3 3 4 4 4 5 6 7 6 5 5 6 5 5 5 6 6 7 7 7 7 7 7 7 7 8 10 8 8 9
1 1 1 2 2 2 2 2 2 3 3 3 4 3 4 4 4 4 5 5 5 5 5 5 5 5 5 5 6 6 6 6 6 7 7 7 7 7 8 9 8 8 9 9
Wind_Direction
258 266 253 251 246 227 225 235 246 259 261 270 267 261 260 258 262 255 250 245 242 244 254 251 259 256 242 242 238 229 225 230 242 246 247 246 247 264 276 269 257 254 251 251
261 256 256 261 254 239 236 242 248 261 268 277 275 265 257 252 244 240 251 253 248 248 261 258 261 269 259 251 249 235 230 246 255 241 237 240 253 267 279 283 281 272 261 257
262 271 279 260 243 225 226 230 234 247 259 270 258 249 245 242 229 239 253 252 245 247 262 269 272 277 272 267 257 237 241 263 280 263 252 256 265 276 280 282 284 279 276 272
258 257 247 257 122 216 229 245 235 247 264 264 267 274 270 243 239 253 260 255 255 258 277 294 301 302 303 292 256 244 265 286 298 294 281 281 274 271 277 280 281 282 283 284
222 251 269 268 205 193 220 260 238 242 257 272 310 292 274 259 238 244 252 267 273 271 275 302 316 317 326 319 296 282 288 295 300 294 283 280 277 281 282 286 286 286 286 287
219 241 256 269 115 157 197 261 242 223 233 233 199 253 271 108 175 232 338 3 350 7 13 354 342 346 346 317 306 297 298 301 300 293 277 274 275 281 284 284 284 291 292 293
228 241 261 316 142 165 212 275 283 215 219 209 214 248 33 118 107 91 58 41 38 46 9 340 341 345 322 309 303 305 308 307 304 297 284 279 282 284 286 287 288 291 291 294
211 228 249 135 150 199 251 339 259 233 223 216 220 202 174 163 148 121 67 35 33 22 351 345 337 318 310 308 313 316 313 309 306 304 298 293 290 291 290 290 288 290 294 298
206 223 319 162 196 260 311 277 272 250 228 197 196 206 209 214 210 212 264 329 341 336 332 334 335 324 305 313 321 317 312 309 309 312 306 300 293 291 291 289 288 293 297 300
240 252 257 240 261 283 276 266 275 243 208 195 201 207 212 218 224 244 277 307 317 326 320 326 337 330 311 312 313 307 305 308 310 312 311 303 294 286 283 282 285 291 295 298
247 269 284 265 258 265 274 283 286 267 222 209 198 208 215 227 236 245 270 303 309 303 305 313 324 323 321 317 314 305 302 302 303 303 303 298 289 281 281 277 281 286 288 291
247 250 243 265 267 254 244 246 231 212 217 192 197 211 215 232 246 253 272 295 302 302 303 310 315 314 317 317 309 300 299 301 300 300 298 296 293 293 287 287 290 291 293 294
264 302 285 287 322 337 225 231 215 194 194 195 192 190 201 250 268 274 278 284 289 296 301 306 309 309 312 311 301 289 288 294 296 295 294 294 295 293 300 303 297 296 299 298
269 280 274 273 279 335 107 91 89 88 106 142 146 139 155 271 305 293 286 289 294 298 299 302 305 304 309 305 296 289 287 288 290 289 289 289 290 290 289 294 302 305 305 304
289 265 244 285 46 72 91 101 101 92 76 67 92 125 190 275 289 298 305 308 306 299 298 302 299 301 309 302 293 289 288 290 291 289 287 287 287 287 286 287 289 296 303 308
322 21 171 197 242 243 125 141 174 242 243 253 272 275 270 278 293 304 312 308 295 293 297 295 291 298 304 296 291 289 286 291 294 291 288 286 284 284 286 287 288 291 296 303
230 246 221 238 252 255 242 236 236 248 251 252 264 276 278 286 297 300 308 309 293 287 288 286 289 297 298 293 288 287 290 292 293 289 286 284 284 283 285 286 288 290 294 298
239 240 225 219 228 241 265 264 250 251 255 264 268 265 263 266 277 291 302 309 307 299 293 290 291 295 294 292 286 283 285 287 289 287 285 283 283 282 282 283 286 289 294 298
263 239 243 239 237 233 252 261 254 253 260 252 244 252 260 265 274 287 298 298 296 298 301 303 306 303 297 295 291 281 280 283 286 285 283 285 288 286 285 285 286 289 291 294
351 349 282 277 267 240 250 262 260 260 259 241 243 256 268 275 279 285 288 283 279 284 294 298 299 295 293 291 290 281 278 280 282 284 285 285 286 286 285 285 286 288 289 291
290 284 271 271 285 278 260 252 242 256 269 248 241 254 268 280 280 275 276 286 292 295 296 297 299 295 293 290 289 279 274 276 278 279 281 283 285 286 285 286 287 288 289 291
262 254 254 255 262 277 282 266 250 255 264 262 260 262 273 280 281 276 266 270 287 300 305 297 294 293 297 294 284 274 272 275 278 279 279 280 281 283 284 286 286 287 288 288
258 248 247 249 254 275 292 277 259 252 253 260 263 265 270 277 278 276 285 286 292 297 302 293 294 299 305 304 289 277 276 276 277 277 277 278 278 279 281 284 285 286 286 286
260 255 255 260 247 254 272 283 283 275 269 271 266 264 269 281 284 271 276 291 300 303 301 299 301 305 310 304 292 284 278 276 276 276 278 278 277 277 278 280 282 284 285 285
254 249 235 228 241 255 266 281 289 291 295 294 293 289 280 273 274 288 294 295 299 306 305 305 309 310 309 295 288 284 280 275 276 277 275 276 277 278 279 279 280 282 283 284
254 254 251 249 255 259 258 263 275 283 290 296 300 297 297 297 292 291 294 297 297 302 305 304 306 305 298 292 287 285 283 284 285 282 278 277 276 277 278 279 281 280 281 282
265 266 267 272 267 261 260 264 271 277 280 283 291 295 299 302 302 304 304 301 301 300 299 298 298 297 294 290 288 286 284 283 281 279 278 276 275 275 276 277 279 281 282 282
Height
1477 1477 1479 1476 1476 1478 1477 1469 1464 1453 1454 1451 1455 1458 1459 1459 1459 1458 1458 1458 1458 1458 1458 1457 1457 1457 1457 1457 1457 1457 1456 1456 1456 1457 1457 1457 1457 1457 1457 1458 1458 1458 1458 1458
1478 1477 1478 1475 1469 1469 1469 1467 1463 1458 1454 1452 1455 1456 1457 1456 1456 1456 1455 1455 1455 1455 1454 1454 1454 1453 1453 1453 1453 1453 1453 1453 1453 1452 1452 1452 1452 1453 1453 1453 1453 1453 1453 1453
1469 1475 1475 1462 1458 1461 1462 1460 1459 1454 1450 1453 1454 1454 1454 1453 1453 1453 1453 1452 1452 1452 1452 1451 1451 1451 1450 1450 1449 1449 1449 1449 1448 1448 1448 1448 1448 1449 1449 1449 1448 1448 1448 1448
1471 1473 1464 1448 1457 1456 1456 1455 1456 1453 1452 1453 1453 1453 1452 1452 1451 1450 1450 1450 1450 1449 1449 1449 1448 1448 1447 1447 1447 1446 1446 1445 1445 1445 1444 1444 1445 1445 1445 1445 1444 1443 1443 1442
1470 1461 1448 1449 1455 1457 1456 1452 1451 1451 1451 1452 1452 1451 1450 1449 1449 1449 1449 1448 1448 1447 1447 1446 1446 1445 1445 1444 1444 1443 1442 1442 1442 1441 1441 1441 1440 1441 1441 1440 1439 1439 1439 1437
1468 1459 1444 1443 1455 1456 1457 1449 1447 1448 1448 1449 1450 1448 1446 1447 1447 1447 1446 1446 1445 1445 1444 1444 1443 1442 1442 1441 1441 1440 1439 1439 1438 1438 1437 1437 1437 1437 1436 1436 1435 1435 1434 1433
1462 1456 1445 1452 1455 1456 1451 1442 1446 1445 1445 1447 1447 1446 1446 1445 1445 1445 1445 1444 1444 1443 1442 1442 1441 1440 1439 1439 1438 1438 1437 1436 1435 1435 1434 1434 1433 1433 1432 1432 1431 1430 1429 1428
1460 1456 1447 1453 1454 1452 1445 1445 1445 1444 1444 1444 1444 1444 1444 1444 1443 1443 1443 1442 1442 1441 1440 1440 1439 1438 1437 1436 1436 1435 1434 1433 1432 1431 1431 1430 1430 1429 1428 1428 1427 1426 1425 1424
1452 1448 1448 1449 1447 1446 1445 1444 1443 1443 1442 1442 1442 1442 1442 1442 1442 1441 1441 1440 1440 1439 1438 1438 1437 1436 1435 1434 1433 1432 1431 1430 1429 1428 1427 1427 1426 1425 1425 1424 1423 1422 1421 1420
1452 1446 1447 1447 1445 1444 1443 1442 1441 1441 1441 1441 1440 1440 1440 1440 1440 1440 1439 1438 1438 1437 1436 1435 1435 1434 1433 1432 1431 1430 1429 1427 1426 1425 1424 1424 1423 1422 1421 1420 1420 1419 1417 1416
1448 1446 1445 1443 1442 1441 1441 1440 1439 1439 1439 1439 1439 1438 1438 1438 1438 1438 1437 1436 1436 1435 1434 1433 1433 1432 1431 1430 1428 1427 1426 1425 1424 1422 1421 1420 1420 1419 1418 1417 1417 1416 1415 1414
1440 1441 1441 1440 1439 1439 1438 1437 1437 1437 1437 1437 1437 1436 1436 1436 1436 1435 1435 1434 1434 1433 1432 1431 1430 1429 1429 1427 1426 1425 1423 1422 1421 1420 1418 1417 1416 1415 1414 1414 1413 1412 1411 1410
1440 1439 1438 1437 1437 1437 1436 1436 1435 1435 1435 1435 1435 1435 1435 1434 1434 1433 1433 1432 1431 1431 1430 1429 1428 1427 1426 1425 1424 1422 1421 1419 1418 1417 1415 1414 1413 1412 1410 1410 1409 1408 1407 1406
1438 1437 1436 1435 1435 1435 1434 1434 1434 1433 1433 1433 1433 1433 1433 1432 1432 1431 1431 1430 1429 1428 1427 1426 1425 1425 1424 1422 1421 1420 1418 1417 1415 1414 1413 1411 1410 1409 1407 1406 1404 1403 1402 1401
1435 1435 1434 1434 1433 1433 1433 1432 1432 1432 1432 1432 1432 1431 1430 1430 1429 1429 1428 1427 1426 1426 1425 1424 1423 1422 1421 1419 1418 1417 1415 1414 1413 1411 1410 1409 1407 1406 1405 1403 1401 1400 1398 1397
1434 1433 1433 1432 1432 1431 1431 1431 1430 1430 1430 1430 1430 1429 1429 1428 1427 1427 1426 1425 1424 1422 1422 1420 1419 1418 1417 1416 1415 1413 1412 1411 1410 1408 1407 1405 1404 1403 1401 1400 1398 1396 1395 1393
1432 1431 1431 1431 1430 1430 1430 1430 1429 1429 1429 1428 1428 1427 1427 1426 1425 1424 1423 1422 1421 1420 1418 1417 1416 1415 1414 1413 1412 1410 1409 1408 1407 1405 1404 1402 1401 1399 1398 1396 1395 1393 1391 1390
1430 1430 1430 1429 1429 1429 1428 1428 1428 1427 1427 1426 1426 1425 1424 1423 1422 1421 1420 1419 1418 1416 1415 1414 1413 1412 1411 1409 1408 1407 1406 1404 1403 1402 1400 1399 1397 1396 1394 1393 1391 1389 1388 1386
1429 1429 1428 1428 1428 1427 1427 1426 1426 1425 1425 1424 1423 1422 1421 1420 1419 1418 1417 1416 1414 1413 1412 1411 1409 1408 1407 1406 1405 1404 1402 1401 1400 1398 1397 1395 1394 1392 1391 1389 1387 1386 1384 1382
1428 1427 1427 1427 1426 1426 1425 1424 1424 1423 1422 1421 1420 1419 1418 1418 1417 1415 1414 1413 1411 1410 1409 1408 1406 1405 1404 1403 1402 1400 1399 1398 1396 1395 1393 1392 1390 1389 1387 1385 1383 1381 1380 1378
1427 1426 1425 1425 1424 1423 1423 1422 1421 1420 1419 1418 1417 1416 1415 1414 1413 1412 1410 1409 1408 1407 1406 1404 1403 1401 1400 1399 1398 1397 1395 1394 1392 1391 1390 1388 1387 1385 1383 1381 1379 1377 1375 1374
1425 1424 1423 1422 1421 1421 1420 1419 1418 1417 1416 1415 1414 1413 1412 1411 1410 1409 1408 1406 1405 1404 1402 1401 1399 1398 1397 1396 1395 1393 1392 1390 1389 1387 1386 1384 1383 1381 1379 1377 1375 1373 1371 1369
1423 1422 1421 1420 1419 1418 1417 1416 1415 1414 1413 1412 1411 1410 1409 1408 1407 1405 1404 1403 1402 1400 1399 1397 1396 1395 1394 1392 1391 1389 1388 1386 1385 1383 1382 1380 1379 1377 1375 1373 1371 1369 1367 1365
1420 1419 1418 1417 1416 1415 1414 1413 1413 1412 1411 1410 1409 1407 1406 1405 1403 1402 1401 1399 1398 1397 1395 1394 1392 1391 1390 1388 1387 1385 1383 1382 1380 1379 1377 1376 1374 1372 1370 1368 1366 1364 1362 1360
1417 1416 1415 1414 1413 1412 1412 1411 1410 1409 1408 1407 1406 1405 1403 1402 1401 1399 1397 1396 1394 1393 1391 1390 1389 1387 1386 1384 1382 1381 1379 1377 1376 1374 1373 1371 1369 1368 1366 1364 1361 1359 1357 1355
1414 1414 1413 1412 1411 1410 1408 1407 1407 1406 1404 1403 1402 1401 1400 1399 1397 1396 1394 1393 1391 1390 1388 1386 1385 1383 1381 1380 1378 1376 1375 1373 1371 1370 1368 1366 1364 1363 1361 1359 1356 1354 1352 1350
1412 1411 1410 1409 1408 1407 1406 1405 1404 1403 1401 1400 1399 1398 1397 1396 1394 1393 1391 1390 1388 1386 1384 1383 1381 1379 1377 1376 1374 1372 1370 1368 1366 1365 1363 1361 1359 1357 1356 1353 1351 1349 1347 1345